DELTA 1 DEB, 42638

Orbit data source: Space-Track

DELTA 1 DEB, 42638 is space debris in SSO originally from a launch on Thu, 12 Jun 1975 UTC launched from the Air Force Western Test Range (AFWTR). Debris objects in space refer to the collection of defunct objects orbiting the Earth. Examples of debris include non-operational satellites, rocket bodies, and fragments generated from explosions, collisions, or faulty payload assembly.

Loading next visibility...
Identifier
42638, 1975-052LX
Orbit
SSO
Country
Flag of USUS
Related business
Manufacturer
Unknown
Mission
Spacecraft
Bus & Motor
Unknown
Mass
Unknown
Launch date (UTC)
1975-06-12 (51 years ago)
Launch vehicle
Unknown
Launch site
Air Force Western Test Range (AFWTR)
Object type
Payload
Rocket body
Debris
Shape & HBR
Unknown shape, 0.1 m
Radar Cross Section
Small (<0.1 m²)

Expand to show TLE details & history
Last TLE update: 2 weeks ago

TLE from 2 weeks ago
0 DELTA 1 DEB
1 42638U 75052LX  26160.55193837  .00001261  00000-0  15785-2 0  9996
2 42638  99.7418 275.0077 0043061  72.5745 288.0099 13.65994202577742
Epoch: 2026-06-09T13:14Z
TLE epoch observation values (Epoch: 2026-06-09T13:14:47.475Z)
Latitude
-0.00005°
Longitude
178.38709°
Altitude
1,007.074 km
Speed
7.353 km/s
True Right ascension
18h 20m 01s
True Declination
0° 00' 00"
Sunlit
Object was in full shadow at epoch
Visualization orbit readout
Latitude
Unknown
Longitude
Unknown
Altitude
Unknown
Speed
Unknown
Apparent Right ascension
Unknown
Apparent Declination
Unknown
Sunlit
N/A
Visualization observer readout
Local Sidereal Time
14:39:25
Azimuth
Unknown
Elevation
Unknown
Doppler factor
Unknown
Orbital elements
Apogee altitude
1,043.089 km
Perigee altitude
979.45 km
Semi-major axis
7,389.407 km
Eccentricity
0.00431
Inclination
99.7418°
RAAN
275.0077°
Arg. of periapsis
72.5745°
True anomaly
287.53986°
Mean anomaly
288.0099°
Eccentric anomaly
287.77496°
Mean motion
3.41687 °/min
Orbital period
105.36 mins
BSTAR
0.0015785
Loading maneuver chart data...
Computing Atmospheric mass density...
Loading historical data...
Loading historical data...
Loading historical data...
Loading historical data...
Loading historical data...
Loading historical data...
Loading historical data...

Documentation

Showing up to 5 results
|